QPF
0.01 0.01 0.01 0.01 0.01 0.01 0.02 0.02 0.03 0.03 0.04 0.05 0.06 0.06 0.05 0.06 0.09 0.11 0.08 0.04 0.03 0.04 0.08 0.06 0.03 0.02 0.02 0.02 0.02 0.02 0.02 0.01 0.02 0.03 0.04 0.04 0.04 0.03 0.04 0.04 0.04 0.04 0.04 0.03
0.01 0.02 0.01 0.01 0.01 0.00 0.01 0.01 0.01 0.03 0.05 0.05 0.05 0.04 0.05 0.05 0.08 0.10 0.08 0.05 0.05 0.04 0.04 0.03 0.02 0.02 0.02 0.02 0.02 0.01 0.01 0.01 0.01 0.02 0.03 0.04 0.04 0.03 0.04 0.04 0.03 0.03 0.03 0.03
0.01 0.02 0.02 0.02 0.01 0.01 0.02 0.02 0.02 0.02 0.04 0.05 0.04 0.03 0.03 0.05 0.06 0.08 0.08 0.08 0.06 0.04 0.03 0.02 0.02 0.03 0.03 0.02 0.02 0.02 0.02 0.02 0.02 0.03 0.03 0.04 0.04 0.04 0.04 0.05 0.05 0.04 0.03 0.04
0.01 0.02 0.02 0.03 0.01 0.02 0.04 0.03 0.02 0.02 0.02 0.02 0.03 0.03 0.04 0.05 0.08 0.12 0.07 0.05 0.04 0.03 0.02 0.01 0.01 0.01 0.01 0.01 0.01 0.02 0.02 0.02 0.03 0.04 0.04 0.04 0.05 0.05 0.05 0.05 0.06 0.05 0.05 0.04
0.01 0.01 0.01 0.01 0.01 0.01 0.01 0.02 0.02 0.02 0.02 0.02 0.02 0.04 0.03 0.05 0.10 0.06 0.03 0.03 0.03 0.04 0.02 0.01 0.01 0.01 0.01 0.01 0.01 0.01 0.01 0.02 0.03 0.03 0.03 0.04 0.04 0.04 0.04 0.04 0.04 0.05 0.04 0.05
0.01 0.01 0.01 0.01 0.01 0.01 0.01 0.02 0.01 0.01 0.01 0.01 0.01 0.04 0.07 0.11 0.07 0.03 0.03 0.03 0.02 0.03 0.02 0.03 0.02 0.02 0.02 0.01 0.01 0.01 0.01 0.01 0.02 0.02 0.03 0.03 0.03 0.02 0.02 0.01 0.01 0.01 0.01 0.03
0.01 0.01 0.01 0.01 0.01 0.01 0.01 0.02 0.01 0.01 0.01 0.01 0.01 0.03 0.04 0.03 0.02 0.02 0.02 0.02 0.02 0.02 0.02 0.05 0.05 0.04 0.03 0.02 0.01 0.01 0.01 0.01 0.01 0.02 0.02 0.02 0.02 0.01 0.01 0.01 0.01 0.01 0.01 0.02
0.01 0.01 0.02 0.02 0.01 0.02 0.02 0.02 0.01 0.02 0.02 0.03 0.05 0.03 0.02 0.02 0.02 0.02 0.02 0.02 0.02 0.02 0.02 0.04 0.06 0.05 0.04 0.02 0.02 0.02 0.02 0.02 0.02 0.02 0.03 0.02 0.02 0.01 0.01 0.01 0.01 0.01 0.02 0.02
0.02 0.02 0.01 0.02 0.02 0.02 0.03 0.03 0.02 0.03 0.03 0.03 0.04 0.03 0.03 0.03 0.02 0.02 0.02 0.02 0.02 0.02 0.03 0.04 0.05 0.06 0.06 0.04 0.03 0.03 0.04 0.03 0.03 0.03 0.02 0.02 0.02 0.01 0.01 0.01 0.01 0.02 0.02 0.02
0.04 0.04 0.03 0.02 0.02 0.03 0.03 0.04 0.04 0.05 0.06 0.07 0.07 0.05 0.04 0.04 0.03 0.02 0.01 0.01 0.01 0.02 0.02 0.04 0.07 0.08 0.08 0.07 0.06 0.05 0.04 0.03 0.03 0.02 0.02 0.02 0.02 0.02 0.02 0.03 0.03 0.03 0.03 0.02
0.05 0.06 0.08 0.06 0.03 0.03 0.03 0.04 0.04 0.04 0.06 0.06 0.05 0.04 0.03 0.02 0.02 0.01 0.01 0.01 0.01 0.01 0.02 0.03 0.06 0.09 0.12 0.11 0.08 0.06 0.04 0.03 0.03 0.02 0.02 0.02 0.02 0.02 0.02 0.02 0.02 0.02 0.02 0.02
0.05 0.03 0.04 0.04 0.05 0.06 0.06 0.04 0.04 0.03 0.03 0.03 0.04 0.04 0.04 0.03 0.02 0.01 0.01 0.01 0.03 0.05 0.05 0.04 0.04 0.06 0.06 0.07 0.07 0.06 0.05 0.04 0.03 0.02 0.02 0.02 0.02 0.02 0.02 0.02 0.03 0.03 0.04 0.03
0.08 0.05 0.03 0.03 0.03 0.05 0.05 0.04 0.04 0.04 0.03 0.03 0.03 0.03 0.03 0.02 0.02 0.02 0.02 0.02 0.02 0.03 0.03 0.02 0.02 0.03 0.04 0.03 0.04 0.05 0.05 0.04 0.03 0.02 0.02 0.03 0.03 0.02 0.02 0.02 0.03 0.04 0.03 0.03
0.03 0.03 0.02 0.02 0.02 0.02 0.04 0.06 0.06 0.04 0.04 0.04 0.04 0.03 0.02 0.02 0.01 0.02 0.01 0.01 0.01 0.01 0.02 0.02 0.01 0.01 0.02 0.03 0.03 0.03 0.03 0.02 0.01 0.02 0.02 0.02 0.03 0.03 0.03 0.03 0.03 0.03 0.03 0.03
0.01 0.03 0.03 0.02 0.03 0.04 0.05 0.07 0.11 0.11 0.07 0.05 0.08 0.06 0.03 0.03 0.02 0.02 0.02 0.01 0.01 0.01 0.01 0.02 0.02 0.02 0.03 0.03 0.04 0.04 0.04 0.03 0.02 0.01 0.02 0.02 0.03 0.03 0.04 0.04 0.03 0.03 0.02 0.03
0.01 0.02 0.02 0.01 0.01 0.02 0.06 0.08 0.11 0.18 0.11 0.06 0.08 0.11 0.08 0.05 0.04 0.03 0.03 0.03 0.02 0.02 0.02 0.01 0.01 0.02 0.03 0.03 0.04 0.04 0.05 0.04 0.03 0.02 0.02 0.02 0.02 0.02 0.02 0.02 0.03 0.03 0.03 0.03
0.01 0.01 0.01 0.01 0.02 0.02 0.07 0.12 0.09 0.15 0.14 0.08 0.07 0.08 0.08 0.06 0.05 0.04 0.04 0.05 0.05 0.05 0.04 0.02 0.02 0.02 0.03 0.03 0.04 0.04 0.04 0.04 0.03 0.02 0.02 0.02 0.01 0.01 0.01 0.01 0.02 0.04 0.06 0.06
0.01 0.01 0.01 0.01 0.02 0.03 0.07 0.12 0.08 0.08 0.12 0.09 0.06 0.04 0.05 0.05 0.04 0.04 0.07 0.08 0.07 0.06 0.04 0.04 0.03 0.02 0.03 0.03 0.04 0.04 0.05 0.05 0.04 0.02 0.01 0.01 0.01 0.01 0.01 0.01 0.02 0.03 0.04 0.04
0.01 0.01 0.02 0.02 0.02 0.04 0.08 0.12 0.10 0.07 0.07 0.07 0.06 0.05 0.04 0.05 0.05 0.05 0.06 0.06 0.04 0.04 0.03 0.04 0.04 0.03 0.03 0.04 0.05 0.04 0.05 0.05 0.04 0.02 0.01 0.01 0.01 0.01 0.01 0.02 0.02 0.02 0.02 0.03
0.02 0.02 0.02 0.02 0.02 0.03 0.04 0.07 0.11 0.08 0.06 0.06 0.05 0.06 0.07 0.06 0.05 0.05 0.04 0.04 0.04 0.03 0.03 0.03 0.03 0.04 0.03 0.04 0.07 0.06 0.05 0.05 0.03 0.02 0.01 0.01 0.01 0.02 0.02 0.02 0.02 0.02 0.03 0.03
0.04 0.03 0.03 0.03 0.03 0.03 0.05 0.07 0.09 0.08 0.06 0.06 0.06 0.05 0.06 0.05 0.03 0.04 0.03 0.03 0.03 0.03 0.03 0.03 0.03 0.04 0.03 0.03 0.05 0.07 0.07 0.05 0.04 0.03 0.02 0.01 0.02 0.02 0.03 0.03 0.03 0.03 0.03 0.03
0.05 0.04 0.03 0.04 0.04 0.04 0.06 0.06 0.07 0.10 0.08 0.06 0.06 0.05 0.04 0.04 0.03 0.02 0.02 0.02 0.03 0.04 0.04 0.03 0.04 0.04 0.03 0.02 0.02 0.03 0.04 0.04 0.04 0.03 0.03 0.03 0.03 0.03 0.04 0.04 0.04 0.04 0.03 0.04
0.06 0.04 0.05 0.10 0.12 0.09 0.07 0.07 0.08 0.08 0.09 0.08 0.06 0.05 0.06 0.06 0.05 0.03 0.03 0.02 0.02 0.03 0.02 0.02 0.03 0.03 0.02 0.01 0.01 0.02 0.02 0.02 0.03 0.02 0.02 0.02 0.02 0.03 0.03 0.03 0.03 0.03 0.03 0.03
0.04 0.04 0.07 0.19 0.17 0.07 0.07 0.08 0.09 0.09 0.09 0.08 0.08 0.06 0.05 0.05 0.05 0.04 0.03 0.03 0.02 0.02 0.02 0.02 0.02 0.01 0.01 0.01 0.01 0.01 0.01 0.02 0.02 0.01 0.01 0.01 0.02 0.02 0.02 0.03 0.03 0.02 0.03 0.03
0.04 0.04 0.06 0.10 0.10 0.08 0.08 0.10 0.11 0.11 0.09 0.08 0.06 0.04 0.03 0.02 0.02 0.02 0.02 0.03 0.03 0.03 0.02 0.02 0.01 0.01 0.01 0.01 0.01 0.01 0.02 0.02 0.03 0.01 0.01 0.01 0.01 0.01 0.02 0.02 0.02 0.02 0.02 0.03
0.04 0.04 0.04 0.04 0.05 0.07 0.09 0.11 0.12 0.13 0.10 0.07 0.05 0.04 0.03 0.02 0.02 0.02 0.02 0.03 0.02 0.02 0.02 0.01 0.01 0.01 0.01 0.01 0.02 0.02 0.02 0.03 0.04 0.02 0.01 0.01 0.01 0.01 0.02 0.02 0.02 0.02 0.01 0.01
0.04 0.06 0.05 0.03 0.04 0.06 0.09 0.10 0.09 0.09 0.10 0.08 0.05 0.04 0.04 0.03 0.02 0.02 0.02 0.03 0.03 0.04 0.03 0.02 0.01 0.01 0.01 0.01 0.01 0.01 0.01 0.02 0.02 0.02 0.01 0.01 0.01 0.02 0.02 0.02 0.02 0.02 0.01 0.01
MSLP
1011.24 1011.36 1011.48 1011.64 1011.87 1012.18 1012.54 1012.92 1013.28 1013.56 1013.74 1013.80 1013.73 1013.58 1013.36 1013.10 1012.84 1012.60 1012.38 1012.19 1011.99 1011.79 1011.57 1011.31 1011.01 1010.68 1010.32 1009.95 1009.57 1009.19 1008.81 1008.42 1008.03 1007.61 1007.18 1006.72 1006.25 1005.76 1005.27 1004.78 1004.30 1003.85 1003.42 1003.03
1011.71 1011.82 1011.86 1011.88 1011.92 1012.02 1012.17 1012.36 1012.59 1012.82 1013.01 1013.16 1013.24 1013.25 1013.19 1013.08 1012.93 1012.74 1012.54 1012.32 1012.08 1011.83 1011.57 1011.30 1011.01 1010.72 1010.41 1010.08 1009.74 1009.39 1009.00 1008.59 1008.15 1007.67 1007.16 1006.62 1006.06 1005.49 1004.91 1004.34 1003.78 1003.23 1002.70 1002.21
1012.20 1012.30 1012.29 1012.20 1012.11 1012.03 1012.01 1012.06 1012.17 1012.33 1012.52 1012.70 1012.86 1012.97 1013.01 1012.98 1012.89 1012.73 1012.52 1012.27 1011.99 1011.71 1011.42 1011.14 1010.87 1010.60 1010.34 1010.06 1009.76 1009.43 1009.05 1008.62 1008.13 1007.60 1007.02 1006.41 1005.78 1005.14 1004.48 1003.83 1003.18 1002.54 1001.92 1001.32
1012.69 1012.77 1012.71 1012.56 1012.37 1012.18 1012.04 1011.97 1011.98 1012.07 1012.21 1012.39 1012.56 1012.71 1012.79 1012.80 1012.72 1012.56 1012.33 1012.05 1011.74 1011.43 1011.13 1010.85 1010.60 1010.36 1010.14 1009.90 1009.64 1009.32 1008.94 1008.50 1007.99 1007.41 1006.78 1006.12 1005.43 1004.72 1004.00 1003.28 1002.55 1001.83 1001.11 1000.41
1013.11 1013.16 1013.07 1012.88 1012.64 1012.38 1012.16 1012.00 1011.92 1011.94 1012.02 1012.16 1012.31 1012.43 1012.51 1012.51 1012.42 1012.24 1011.99 1011.69 1011.37 1011.04 1010.74 1010.47 1010.24 1010.04 1009.84 1009.64 1009.40 1009.10 1008.72 1008.27 1007.74 1007.14 1006.48 1005.77 1005.04 1004.28 1003.50 1002.72 1001.92 1001.12 1000.32 999.53
1013.40 1013.40 1013.29 1013.08 1012.81 1012.53 1012.26 1012.04 1011.91 1011.85 1011.87 1011.94 1012.04 1012.12 1012.16 1012.13 1012.02 1011.82 1011.56 1011.26 1010.93 1010.61 1010.31 1010.06 1009.84 1009.66 1009.49 1009.31 1009.08 1008.80 1008.44 1007.99 1007.45 1006.84 1006.16 1005.43 1004.67 1003.87 1003.05 1002.20 1001.34 1000.46 999.58 998.71
1013.49 1013.45 1013.32 1013.12 1012.85 1012.56 1012.28 1012.03 1011.85 1011.74 1011.70 1011.70 1011.74 1011.77 1011.76 1011.70 1011.57 1011.37 1011.11 1010.80 1010.49 1010.18 1009.90 1009.66 1009.45 1009.28 1009.12 1008.95 1008.74 1008.47 1008.11 1007.68 1007.15 1006.55 1005.87 1005.13 1004.35 1003.52 1002.66 1001.76 1000.84 999.89 998.93 997.98
1013.37 1013.30 1013.16 1012.96 1012.72 1012.45 1012.18 1011.94 1011.74 1011.60 1011.51 1011.46 1011.44 1011.42 1011.37 1011.29 1011.14 1010.94 1010.69 1010.40 1010.10 1009.81 1009.54 1009.30 1009.10 1008.92 1008.76 1008.58 1008.37 1008.11 1007.77 1007.36 1006.86 1006.28 1005.62 1004.89 1004.10 1003.25 1002.35 1001.40 1000.41 999.39 998.36 997.34
1013.06 1012.96 1012.83 1012.66 1012.46 1012.24 1012.01 1011.80 1011.60 1011.45 1011.33 1011.25 1011.19 1011.13 1011.06 1010.96 1010.81 1010.62 1010.38 1010.11 1009.82 1009.53 1009.25 1009.00 1008.78 1008.58 1008.39 1008.20 1007.99 1007.73 1007.41 1007.03 1006.57 1006.02 1005.39 1004.68 1003.89 1003.03 1002.09 1001.09 1000.04 998.96 997.85 996.77
1012.60 1012.50 1012.40 1012.28 1012.15 1011.99 1011.82 1011.65 1011.49 1011.35 1011.23 1011.14 1011.06 1010.98 1010.89 1010.78 1010.64 1010.45 1010.22 1009.95 1009.66 1009.36 1009.05 1008.77 1008.50 1008.25 1008.02 1007.80 1007.57 1007.32 1007.02 1006.67 1006.26 1005.76 1005.18 1004.49 1003.72 1002.84 1001.88 1000.83 999.72 998.57 997.41 996.27
1012.06 1011.99 1011.94 1011.89 1011.84 1011.77 1011.68 1011.58 1011.47 1011.36 1011.26 1011.16 1011.08 1011.00 1010.90 1010.79 1010.64 1010.45 1010.22 1009.94 1009.63 1009.28 1008.93 1008.58 1008.24 1007.93 1007.64 1007.37 1007.12 1006.86 1006.59 1006.28 1005.92 1005.48 1004.95 1004.31 1003.55 1002.68 1001.70 1000.62 999.46 998.25 997.04 995.86
1011.51 1011.50 1011.52 1011.56 1011.61 1011.63 1011.64 1011.61 1011.56 1011.50 1011.42 1011.35 1011.27 1011.18 1011.09 1010.97 1010.82 1010.62 1010.36 1010.05 1009.69 1009.29 1008.86 1008.42 1008.00 1007.60 1007.23 1006.91 1006.63 1006.37 1006.12 1005.86 1005.56 1005.18 1004.72 1004.13 1003.41 1002.56 1001.57 1000.47 999.28 998.04 996.80 995.59
1011.00 1011.07 1011.18 1011.33 1011.47 1011.59 1011.69 1011.74 1011.76 1011.74 1011.69 1011.63 1011.56 1011.48 1011.38 1011.25 1011.09 1010.87 1010.58 1010.23 1009.80 1009.33 1008.81 1008.28 1007.76 1007.26 1006.82 1006.44 1006.12 1005.86 1005.64 1005.43 1005.19 1004.89 1004.50 1003.99 1003.33 1002.51 1001.55 1000.46 999.27 998.02 996.76 995.55
1010.57 1010.73 1010.94 1011.18 1011.41 1011.63 1011.80 1011.92 1011.99 1012.01 1011.99 1011.95 1011.88 1011.80 1011.70 1011.56 1011.37 1011.12 1010.80 1010.40 1009.92 1009.36 1008.76 1008.13 1007.51 1006.93 1006.41 1005.98 1005.64 1005.38 1005.18 1005.02 1004.85 1004.64 1004.34 1003.91 1003.33 1002.58 1001.67 1000.62 999.46 998.24 997.01 995.81
1010.26 1010.49 1010.78 1011.10 1011.41 1011.69 1011.92 1012.08 1012.19 1012.23 1012.23 1012.19 1012.13 1012.04 1011.93 1011.78 1011.58 1011.31 1010.96 1010.51 1009.97 1009.35 1008.68 1007.97 1007.27 1006.61 1006.04 1005.56 1005.19 1004.94 1004.77 1004.66 1004.57 1004.45 1004.24 1003.92 1003.44 1002.78 1001.96 1000.99 999.91 998.75 997.57 996.43
1010.07 1010.36 1010.71 1011.07 1011.42 1011.74 1011.99 1012.17 1012.28 1012.33 1012.33 1012.29 1012.22 1012.13 1012.01 1011.86 1011.64 1011.36 1010.99 1010.52 1009.94 1009.28 1008.55 1007.78 1007.02 1006.31 1005.69 1005.18 1004.80 1004.55 1004.41 1004.36 1004.34 1004.31 1004.20 1003.99 1003.63 1003.10 1002.40 1001.55 1000.58 999.52 998.45 997.39
1010.02 1010.34 1010.70 1011.08 1011.43 1011.74 1011.97 1012.14 1012.23 1012.26 1012.24 1012.19 1012.12 1012.02 1011.90 1011.74 1011.53 1011.25 1010.87 1010.39 1009.80 1009.12 1008.36 1007.56 1006.77 1006.02 1005.36 1004.83 1004.44 1004.20 1004.09 1004.08 1004.12 1004.17 1004.17 1004.08 1003.85 1003.46 1002.91 1002.21 1001.39 1000.48 999.53 998.60
1010.13 1010.44 1010.78 1011.12 1011.43 1011.68 1011.87 1011.99 1012.04 1012.03 1011.98 1011.91 1011.82 1011.72 1011.60 1011.45 1011.26 1010.99 1010.62 1010.15 1009.57 1008.88 1008.12 1007.31 1006.50 1005.73 1005.05 1004.50 1004.10 1003.86 1003.76 1003.78 1003.87 1003.99 1004.08 1004.10 1004.00 1003.77 1003.38 1002.86 1002.21 1001.48 1000.70 999.91
1010.39 1010.64 1010.92 1011.19 1011.42 1011.59 1011.70 1011.74 1011.73 1011.67 1011.58 1011.48 1011.38 1011.28 1011.17 1011.03 1010.85 1010.61 1010.27 1009.81 1009.25 1008.58 1007.82 1007.01 1006.20 1005.42 1004.73 1004.16 1003.74 1003.49 1003.38 1003.41 1003.52 1003.69 1003.86 1003.97 1004.00 1003.91 1003.69 1003.35 1002.89 1002.35 1001.76 1001.16
1010.76 1010.94 1011.12 1011.29 1011.41 1011.48 1011.49 1011.45 1011.36 1011.24 1011.11 1010.98 1010.87 1010.77 1010.66 1010.55 1010.39 1010.16 1009.85 1009.42 1008.88 1008.23 1007.49 1006.69 1005.87 1005.09 1004.38 1003.79 1003.34 1003.06 1002.93 1002.94 1003.06 1003.25 1003.46 1003.65 1003.78 1003.82 1003.76 1003.59 1003.33 1002.99 1002.59 1002.18
1011.19 1011.27 1011.35 1011.40 1011.40 1011.36 1011.27 1011.14 1010.98 1010.80 1010.63 1010.48 1010.36 1010.25 1010.16 1010.05 1009.91 1009.70 1009.41 1009.00 1008.48 1007.85 1007.12 1006.34 1005.52 1004.73 1004.00 1003.39 1002.91 1002.58 1002.41 1002.39 1002.49 1002.67 1002.90 1003.14 1003.35 1003.50 1003.57 1003.56 1003.47 1003.32 1003.12 1002.88
1011.59 1011.58 1011.55 1011.48 1011.38 1011.23 1011.05 1010.83 1010.61 1010.39 1010.18 1010.01 1009.87 1009.76 1009.67 1009.57 1009.44 1009.24 1008.96 1008.57 1008.06 1007.45 1006.74 1005.96 1005.15 1004.36 1003.62 1002.98 1002.46 1002.10 1001.88 1001.81 1001.87 1002.03 1002.26 1002.51 1002.77 1002.99 1003.17 1003.29 1003.35 1003.36 1003.33 1003.27
1011.87 1011.77 1011.65 1011.49 1011.29 1011.06 1010.80 1010.53 1010.25 1010.00 1009.77 1009.58 1009.43 1009.32 1009.21 1009.11 1008.97 1008.78 1008.50 1008.11 1007.62 1007.02 1006.32 1005.56 1004.77 1003.99 1003.25 1002.60 1002.06 1001.66 1001.40 1001.29 1001.31 1001.43 1001.63 1001.88 1002.15 1002.42 1002.67 1002.88 1003.06 1003.20 1003.31 1003.40
1011.97 1011.80 1011.61 1011.38 1011.12 1010.82 1010.51 1010.20 1009.90 1009.62 1009.37 1009.17 1009.01 1008.88 1008.76 1008.64 1008.49 1008.29 1008.00 1007.62 1007.14 1006.56 1005.89 1005.16 1004.40 1003.64 1002.93 1002.29 1001.75 1001.34 1001.06 1000.91 1000.88 1000.97 1001.13 1001.36 1001.63 1001.91 1002.19 1002.46 1002.71 1002.95 1003.16 1003.36
1011.84 1011.63 1011.39 1011.12 1010.82 1010.49 1010.16 1009.83 1009.51 1009.22 1008.97 1008.76 1008.58 1008.43 1008.29 1008.15 1007.98 1007.75 1007.46 1007.08 1006.61 1006.06 1005.43 1004.75 1004.04 1003.34 1002.68 1002.08 1001.58 1001.18 1000.90 1000.73 1000.68 1000.73 1000.86 1001.06 1001.30 1001.57 1001.86 1002.15 1002.44 1002.73 1003.01 1003.29
1011.48 1011.25 1011.00 1010.71 1010.40 1010.07 1009.74 1009.40 1009.09 1008.80 1008.54 1008.32 1008.12 1007.95 1007.79 1007.61 1007.41 1007.17 1006.87 1006.49 1006.05 1005.53 1004.96 1004.36 1003.73 1003.11 1002.53 1002.01 1001.56 1001.21 1000.95 1000.80 1000.73 1000.76 1000.86 1001.03 1001.23 1001.48 1001.74 1002.03 1002.32 1002.63 1002.94 1003.26
1010.95 1010.72 1010.47 1010.19 1009.89 1009.58 1009.26 1008.94 1008.64 1008.36 1008.09 1007.86 1007.65 1007.45 1007.25 1007.04 1006.82 1006.55 1006.24 1005.88 1005.47 1005.01 1004.52 1004.00 1003.47 1002.96 1002.48 1002.06 1001.70 1001.41 1001.20 1001.07 1001.02 1001.03 1001.11 1001.24 1001.41 1001.62 1001.85 1002.11 1002.38 1002.68 1003.00 1003.33
Thickness
5778 5789 5792 5791 5792 5792 5783 5773 5761 5766 5771 5779 5786 5789 5790 5790 5791 5790 5787 5785 5784 5781 5778 5776 5775 5774 5772 5770 5768 5766 5761 5757 5754 5752 5750 5747 5745 5743 5740 5737 5735 5732 5728 5725
5770 5785 5787 5783 5788 5790 5786 5782 5775 5774 5771 5787 5788 5788 5785 5784 5784 5782 5782 5781 5779 5777 5774 5771 5770 5769 5767 5765 5763 5761 5756 5753 5750 5746 5744 5742 5739 5736 5733 5730 5728 5725 5721 5718
5745 5766 5770 5758 5776 5781 5777 5779 5775 5764 5771 5782 5780 5782 5780 5780 5781 5778 5779 5779 5777 5774 5770 5769 5767 5765 5762 5760 5757 5754 5750 5746 5744 5741 5737 5735 5733 5729 5726 5723 5721 5717 5714 5711
5734 5744 5733 5756 5785 5786 5777 5776 5778 5775 5777 5779 5780 5780 5781 5781 5778 5776 5777 5776 5773 5771 5768 5766 5764 5761 5758 5755 5750 5746 5742 5739 5737 5734 5731 5728 5725 5722 5719 5716 5713 5710 5707 5704
5721 5723 5733 5757 5774 5777 5767 5759 5772 5771 5772 5773 5774 5771 5769 5776 5776 5773 5774 5772 5769 5767 5764 5760 5758 5755 5751 5746 5742 5738 5735 5732 5730 5728 5724 5721 5718 5715 5712 5709 5707 5704 5701 5698
5718 5717 5716 5740 5770 5782 5769 5743 5765 5767 5764 5764 5762 5745 5750 5766 5768 5767 5767 5766 5762 5759 5757 5753 5750 5747 5741 5736 5733 5730 5728 5726 5724 5722 5718 5714 5712 5709 5706 5703 5700 5697 5694 5691
5712 5710 5720 5749 5765 5769 5735 5734 5757 5760 5759 5758 5753 5751 5755 5760 5759 5760 5759 5757 5755 5751 5747 5744 5742 5738 5731 5728 5725 5724 5722 5720 5717 5714 5711 5708 5705 5702 5699 5696 5692 5688 5685 5682
5704 5701 5710 5749 5753 5741 5735 5749 5753 5753 5754 5753 5752 5753 5752 5751 5751 5751 5748 5747 5746 5741 5738 5736 5734 5729 5723 5720 5719 5717 5714 5711 5708 5705 5704 5701 5696 5693 5691 5687 5682 5679 5675 5673
5708 5710 5728 5741 5743 5745 5746 5745 5747 5747 5749 5749 5746 5744 5745 5743 5742 5742 5740 5738 5737 5733 5729 5726 5725 5722 5716 5713 5711 5709 5705 5702 5699 5697 5695 5692 5689 5685 5682 5678 5674 5670 5666 5663
5706 5715 5726 5733 5739 5742 5744 5742 5744 5746 5745 5745 5741 5739 5737 5735 5734 5732 5731 5729 5727 5724 5720 5716 5715 5713 5710 5707 5703 5700 5695 5692 5690 5688 5685 5683 5680 5678 5673 5670 5666 5662 5658 5655
5697 5709 5717 5723 5729 5734 5736 5738 5738 5739 5740 5739 5735 5731 5730 5727 5725 5724 5723 5721 5718 5714 5711 5708 5706 5704 5702 5699 5696 5691 5687 5684 5681 5679 5676 5674 5671 5669 5667 5664 5661 5657 5653 5649
5690 5701 5702 5709 5722 5728 5727 5726 5728 5728 5728 5729 5728 5724 5722 5718 5716 5715 5714 5712 5708 5705 5702 5699 5697 5696 5694 5692 5688 5684 5679 5676 5673 5670 5668 5665 5662 5660 5660 5657 5655 5652 5649 5645
5701 5707 5707 5711 5716 5719 5719 5720 5720 5719 5718 5716 5718 5717 5714 5710 5708 5706 5705 5702 5699 5697 5695 5692 5689 5688 5686 5685 5682 5677 5673 5670 5666 5663 5660 5656 5654 5651 5648 5647 5646 5644 5641 5638
5702 5703 5700 5703 5704 5710 5711 5710 5711 5711 5711 5710 5709 5707 5705 5702 5700 5698 5695 5694 5692 5690 5688 5685 5682 5679 5679 5677 5674 5670 5667 5664 5660 5656 5652 5649 5646 5643 5641 5638 5635 5633 5632 5630
5694 5696 5694 5696 5699 5701 5702 5701 5698 5696 5698 5698 5698 5697 5695 5692 5690 5688 5688 5687 5684 5681 5678 5677 5674 5672 5671 5669 5665 5662 5658 5655 5652 5649 5645 5642 5639 5637 5634 5631 5628 5625 5623 5622
5687 5688 5688 5687 5687 5690 5690 5689 5686 5685 5687 5687 5687 5687 5686 5685 5682 5680 5679 5678 5675 5671 5670 5668 5666 5664 5663 5661 5657 5653 5651 5649 5646 5641 5638 5635 5631 5629 5626 5623 5620 5617 5615 5613
5675 5674 5675 5676 5678 5680 5681 5681 5680 5679 5679 5679 5679 5678 5677 5675 5673 5671 5669 5669 5667 5664 5662 5660 5658 5656 5655 5652 5649 5646 5643 5641 5639 5634 5630 5627 5624 5621 5618 5615 5612 5609 5607 5606
5674 5674 5673 5672 5672 5672 5673 5673 5674 5674 5671 5672 5672 5670 5668 5665 5663 5661 5660 5659 5656 5654 5652 5651 5649 5647 5645 5643 5641 5638 5636 5632 5629 5626 5622 5619 5616 5613 5610 5608 5606 5603 5600 5599
5668 5668 5667 5668 5668 5666 5665 5664 5665 5665 5665 5664 5662 5659 5658 5657 5655 5653 5652 5649 5646 5643 5642 5642 5641 5638 5636 5635 5634 5631 5628 5625 5621 5618 5615 5612 5609 5605 5602 5600 5597 5595 5593 5590
5660 5660 5660 5661 5661 5660 5658 5658 5657 5656 5655 5654 5653 5651 5649 5648 5647 5645 5642 5639 5637 5636 5635 5633 5631 5628 5628 5627 5626 5623 5620 5617 5613 5610 5607 5604 5601 5597 5595 5592 5590 5587 5585 5582
5652 5651 5652 5652 5651 5652 5652 5651 5650 5648 5646 5646 5643 5641 5640 5640 5638 5636 5633 5629 5629 5629 5626 5624 5622 5620 5620 5619 5617 5614 5611 5608 5605 5601 5599 5596 5593 5590 5587 5585 5582 5580 5577 5575
5642 5642 5644 5644 5643 5642 5643 5643 5642 5640 5638 5637 5636 5634 5632 5630 5629 5626 5624 5622 5622 5621 5618 5617 5615 5614 5612 5611 5608 5605 5602 5599 5596 5593 5590 5588 5585 5582 5580 5578 5575 5573 5570 5567
5635 5636 5636 5636 5635 5634 5634 5633 5633 5633 5631 5630 5628 5626 5624 5622 5620 5617 5614 5615 5616 5615 5612 5610 5609 5607 5605 5602 5599 5597 5594 5591 5588 5586 5583 5580 5578 5575 5573 5571 5568 5566 5563 5561
5628 5629 5628 5628 5628 5626 5625 5625 5625 5625 5624 5623 5622 5620 5618 5615 5612 5612 5611 5610 5610 5608 5605 5603 5602 5600 5598 5594 5591 5588 5585 5583 5580 5577 5575 5572 5570 5568 5567 5565 5562 5560 5557 5555
5622 5622 5622 5620 5619 5618 5619 5618 5618 5617 5617 5615 5615 5614 5613 5610 5608 5607 5605 5603 5602 5601 5599 5597 5596 5594 5590 5586 5583 5580 5578 5575 5573 5570 5567 5565 5563 5561 5559 5558 5556 5554 5551 5548
5616 5615 5615 5615 5614 5614 5613 5612 5610 5609 5608 5606 5606 5606 5605 5603 5602 5600 5598 5597 5596 5595 5592 5590 5588 5585 5582 5579 5576 5573 5571 5568 5565 5562 5560 5558 5556 5554 5552 5551 5549 5547 5544 5542
5610 5610 5609 5609 5609 5609 5608 5606 5604 5602 5601 5600 5598 5598 5597 5596 5595 5594 5592 5589 5588 5587 5585 5583 5581 5578 5575 5573 5569 5567 5564 5561 5558 5555 5552 5550 5548 5547 5545 5543 5541 5539 5537 5535